Location: Unspecified
(51.0000°N, 12.0000°E)
Time: 00:08:16
(UTC+01:00)

ISS - Pass Details

Date: 03 December 2020
Orbit: 418 x 419 km, 51.6° (Epoch: 18 January)

Event Time Altitude Azimuth Distance (km) Brightness Sun altitude
Rises 18:56:19 0° 285° (WNW) 2,370 1.2 -25.5°
Reaches altitude 10° 18:58:31 10° 277° (W) 1,503 0.0 -25.9°
Enters shadow 19:00:30 27° 251° (WSW) 836 -1.7 -26.2°
